Location: *
(58.7167°N, 26.1833°E)
Time: 00:38:38
(UTC+00:00)

Cosmos 1544 - Pass Details

Date: 25 August 2019
Orbit: 473 x 493 km, 82.5° (Epoch: 18 September)

Event Time Altitude Azimuth Distance (km) Brightness Sun altitude
Exits shadow 19:55:21 21° 101° (ESE) 1,115 4.5 -14.9°
Maximum altitude 19:55:51 22° 88° (E) 1,093 4.5 -15.0°
Drops below altitude 10° 19:58:42 10° 37° (NE) 1,662 6.0 -15.2°
Sets 20:01:06 0° 22° (NNE) 2,544 7.2 -15.4°
